Weather History for Covington, KY

Change the Weather History Date:

Wednesday, March 27, 2013

  Actual Average Record
Temperature  
Mean Temperature 37 °F 48 °F  
Max Temperature 45 °F 58 °F 85 °F (1910)
Min Temperature 28 °F 37 °F 14 °F (1955)
Degree Days  
Heating Degree Days 28 18  
Month to date heating degree days 771 599  
Since 1 July heating degree days 4481 4426  
Cooling Degree Days 0 0  
Month to date cooling degree days 0 0  
Year to date cooling degree days 0 0  
Moisture  
Dew Point 26 °F    
Average Humidity 69    
Maximum Humidity 92    
Minimum Humidity 45    
Precipitation  
Precipitation T in 0.14 in 1.70 in (1939)
Month to date precipitation 3.83 3.40  
Year to date precipitation 9.43 9.21  
Snow  
Snow T in 0.10 in 0.70 in (1992)
Month to date snowfall 8.8 2.8  
Since 1 July snowfall 25.2 21.4  
Snow Depth 0.00 in    
Sea Level Pressure  
Sea Level Pressure 30.29 in    
Wind  
Wind Speed 9 mph (WNW)    
Max Wind Speed 18 mph    
Max Gust Speed 23 mph    
Visibility 10 miles    
Events      
T = Trace of Precipitation, MM = Missing Value Source: NWS Daily Summary

Daily Weather History Graph

Daily Weather History Graph

Search for Another Location

Airport:

Trip Planner

Search our weather history database for the weather conditions in past years. The results will help you decide how hot, cold, wet, or windy it might be!

Date:

Astronomy

Mar. 27, 2013 Rise Set
Actual Time 7:30 AM EDT 7:57 PM EDT
Civil Twilight 7:03 AM EDT 8:24 PM EDT
Nautical Twilight 6:32 AM EDT 8:56 PM EDT
Astronomical Twilight 6:00 AM EDT 9:28 PM EDT
Moon 8:39 PM EDT (3/27) 7:21 AM EDT (3/27)
Length of Visible Light 13h 20m
Length of Day
12h 27m
Full, 100% of the Moon is Illuminated
Mar 27
Full
Apr 3
Last Quarter
Apr 10
New
Apr 18
First Quarter
Apr 25
Full

Hourly Weather History & Observations

Time (EDT) Temp. Windchill Dew Point Humidity Pressure Visibility Wind Dir Wind Speed Gust Speed Precip Events Conditions
12:52 AM 33.1 °F 26.9 °F 25.0 °F 72% 30.26 in 10.0 mi West 6.9 mph - N/A   Overcast
1:52 AM 33.1 °F 26.1 °F 26.1 °F 75% 30.25 in 10.0 mi West 8.1 mph - N/A   Overcast
2:52 AM 32.0 °F 25.6 °F 26.1 °F 79% 30.26 in 10.0 mi West 6.9 mph - N/A   Overcast
3:52 AM 30.0 °F 22.4 °F 26.1 °F 85% 30.25 in 10.0 mi West 8.1 mph - N/A   Partly Cloudy
4:52 AM 30.0 °F 22.4 °F 26.1 °F 85% 30.25 in 10.0 mi West 8.1 mph - N/A   Clear
5:52 AM 28.9 °F 20.4 °F 26.1 °F 89% 30.27 in 10.0 mi West 9.2 mph - N/A   Partly Cloudy
6:52 AM 28.0 °F 20.0 °F 26.1 °F 92% 30.28 in 10.0 mi West 8.1 mph - N/A   Partly Cloudy
7:52 AM 28.0 °F 19.3 °F 26.1 °F 92% 30.28 in 8.0 mi West 9.2 mph - N/A   Scattered Clouds
8:52 AM 30.9 °F 22.2 °F 27.0 °F 85% 30.30 in 8.0 mi West 10.4 mph - N/A   Scattered Clouds
9:52 AM 34.0 °F 25.5 °F 28.0 °F 79% 30.32 in 9.0 mi West 11.5 mph - N/A   Scattered Clouds
10:52 AM 37.9 °F 31.5 °F 28.9 °F 70% 30.32 in 10.0 mi WNW 9.2 mph - N/A   Scattered Clouds
11:52 AM 39.9 °F 33.9 °F 27.0 °F 60% 30.33 in 10.0 mi WNW 9.2 mph - N/A   Mostly Cloudy
12:52 PM 41.0 °F 33.9 °F 26.1 °F 55% 30.31 in 10.0 mi West 12.7 mph - N/A   Overcast
1:52 PM 42.1 °F 36.1 °F 24.1 °F 49% 30.30 in 10.0 mi West 10.4 mph - N/A   Overcast
2:52 PM 43.0 °F 36.4 °F 24.1 °F 47% 30.30 in 10.0 mi West 12.7 mph - N/A   Overcast
3:52 PM 43.0 °F 36.0 °F 26.1 °F 51% 30.29 in 10.0 mi WNW 13.8 mph - 0.00 in   Overcast
4:52 PM 44.1 °F 36.5 °F 24.1 °F 45% 30.29 in 10.0 mi West 17.3 mph - N/A   Overcast
5:52 PM 42.1 °F 35.2 °F 25.0 °F 51% 30.29 in 10.0 mi WNW 12.7 mph - N/A   Mostly Cloudy
6:52 PM 41.0 °F 33.5 °F 25.0 °F 53% 30.29 in 10.0 mi West 13.8 mph - N/A   Overcast
7:52 PM 39.0 °F 33.4 °F 26.1 °F 60% 30.30 in 10.0 mi West 8.1 mph - N/A   Overcast
8:52 PM 39.0 °F 34.8 °F 25.0 °F 57% 30.30 in 10.0 mi NW 5.8 mph - N/A   Overcast
9:52 PM 37.9 °F 33.5 °F 25.0 °F 60% 30.31 in 10.0 mi NNW 5.8 mph - N/A   Overcast
10:52 PM 37.0 °F 33.3 °F 24.1 °F 59% 30.32 in 10.0 mi NW 4.6 mph - N/A   Overcast
11:52 PM 37.0 °F 34.5 °F 24.1 °F 59% 30.31 in 10.0 mi NNW 3.5 mph - N/A   Overcast